sat.trackr.live / text

‹ back to catalog

STARLINK-35700

NORAD 66217 · 2025-244M

PAYLOAD ACTIVE UNKNOWN

§ Identity

Operator
Country
US
Launch date
2025-10-28
Launch site
AFWTR
Launch vehicle
Mass (kg)
RCS (m²)

Purposes: comms

External: N2YO · Heavens-Above · Gunter

§ Orbital elements

Epoch: 2026-05-24T22:44:00.939840Z

Period
94.10 min
Inclination
53.1561°
Eccentricity
0.0001104
Mean motion
15.30208075 rev/d
Perigee alt
474.4 km
Apogee alt
475.9 km
Semi-major
6,853.3 km
B*
5.0303e-4
RAAN
235.7919°
Arg perigee
74.4784°
Mean anomaly
285.6338°
Rev number
3,332

§ Raw data

STARLINK-357001 66217U 25244M   26144.94723310  .00014572  00000+0  50303-3 0  99972 66217  53.1561 235.7919 0001104  74.4784 285.6338 15.30208075 33328

JSON: /api/v1/satellites/66217 · /tle

For live sub-satellite position, see the globe view (requires WebGL).

§ Visibility from observer

Set your observer location to see the next 7 days of passes ≥ 10°. The values pass through the URL so the page stays shareable.

No JS? Fill the form by hand. The geolocation button needs JavaScript.